Volver al catálogo

STARLINK-5591

ActivoComunicacionesVLEO
NORAD 55771·PAYLOAD·🇺🇸 United States

Lanzado Mar 3, 2023 desde Vandenberg Space Force Base

Loading…

Próximos Pases (próximas 24 horas)

TLE

ActualizadoSource: CelesTrak SupGP

Época: Sep 15, 2026, 01:40 UTC

1 55771C 23028AG  26258.06993056  .00010109  00000+0  84715-3 0  2587
2 55771  69.9998 106.9440 0002510 275.9343 345.4638 14.98327325    10

Sigue STARLINK-5591 en tiempo real con AllMySat

Download on the App Store